• In Deutschland
  • Länderverzeichnis
  • Für 7 Tage
  • Wassertemperatur
  • Satellitenkarten
  • Wetterkarte
  • Widgets
  • user-avatar
    Anmelden

    Stündliche Wetter Canillo

    Heute, 26 April, Mittwoch

    Zeit Temperatur Niederschläge Wind Luftdruck Luftfeuchtigkeit
    00:00 +4°C° 0 mm 1 m/S 611 mmHg 97%
    01:00 +4°C° 0,5 mm 1 m/S 611 mmHg 97%
    02:00 +4°C° 0,5 mm 1 m/S 611 mmHg 97%
    03:00 +4°C° 0,5 mm 1 m/S 611 mmHg 97%
    04:00 +4°C° 0,5 mm 1 m/S 611 mmHg 97%
    05:00 +3°C° 0,5 mm 1 m/S 611 mmHg 97%
    06:00 +3°C° 0 mm 1 m/S 612 mmHg 97%
    07:00 +2°C° 0,5 mm 2 m/S 612 mmHg 95%
    08:00 +2°C° 0,5 mm 2 m/S 612 mmHg 93%
    09:00 +3°C° 0,5 mm 2 m/S 612 mmHg 91%
    10:00 +3°C° 0,5 mm 2 m/S 613 mmHg 89%
    11:00 +3°C° 0,5 mm 2 m/S 613 mmHg 88%
    12:00 +3°C° 0,5 mm 2 m/S 613 mmHg 86%
    13:00 +3°C° 0,8 mm 2 m/S 613 mmHg 86%
    14:00 +2°C° 0,8 mm 2 m/S 613 mmHg 87%
    15:00 +2°C° 0,8 mm 2 m/S 613 mmHg 87%
    16:00 0°C° 0,8 mm 3 m/S 612 mmHg 88%
    17:00 -1°C° 0,8 mm 3 m/S 612 mmHg 90%
    18:00 -2°C° 0,8 mm 3 m/S 612 mmHg 91%
    19:00 -2°C° 1 mm 3 m/S 612 mmHg 91%
    20:00 -4°C° 1 mm 3 m/S 612 mmHg 91%
    21:00 -5°C° 1 mm 3 m/S 612 mmHg 90%
    22:00 -4°C° 0,6 mm 2 m/S 612 mmHg 91%
    23:00 -4°C° 0,6 mm 2 m/S 612 mmHg 92%

    Morgen, 27 April, Donnerstag

    Zeit Temperatur Niederschläge Wind Luftdruck Luftfeuchtigkeit
    00:00 -4°C° 0,6 mm 2 m/S 612 mmHg 92%
    01:00 -4°C° 0,6 mm 2 m/S 612 mmHg 93%
    02:00 -5°C° 0,6 mm 2 m/S 612 mmHg 94%
    03:00 -5°C° 0,6 mm 2 m/S 612 mmHg 95%
    04:00 -5°C° 0,3 mm 2 m/S 612 mmHg 94%
    05:00 -5°C° 0,3 mm 2 m/S 612 mmHg 93%
    06:00 -5°C° 0,3 mm 2 m/S 612 mmHg 92%
    07:00 -5°C° 0,3 mm 3 m/S 612 mmHg 88%
    08:00 -5°C° 0,3 mm 3 m/S 613 mmHg 84%
    09:00 -4°C° 0,3 mm 3 m/S 613 mmHg 81%
    10:00 -2°C° 0,1 mm 3 m/S 613 mmHg 78%
    11:00 -2°C° 0,1 mm 3 m/S 614 mmHg 76%
    12:00 -1°C° 0,1 mm 3 m/S 614 mmHg 73%
    13:00 -1°C° 0,3 mm 3 m/S 614 mmHg 73%
    14:00 -1°C° 0,3 mm 3 m/S 614 mmHg 73%
    15:00 -2°C° 0,3 mm 4 m/S 614 mmHg 74%
    16:00 -2°C° 0,2 mm 3 m/S 614 mmHg 76%
    17:00 -2°C° 0,2 mm 3 m/S 614 mmHg 78%
    18:00 -4°C° 0,2 mm 3 m/S 614 mmHg 80%
    19:00 -5°C° 0 mm 3 m/S 614 mmHg 81%
    20:00 -7°C° 0 mm 3 m/S 614 mmHg 82%
    21:00 -8°C° 0 mm 3 m/S 614 mmHg 83%
    22:00 -8°C° 0 mm 3 m/S 615 mmHg 83%
    23:00 -8°C° 0 mm 3 m/S 615 mmHg 83%

    übermorgen, 28 April, Freitag

    Zeit Temperatur Niederschläge Wind Luftdruck Luftfeuchtigkeit
    00:00 -9°C° 0 mm 3 m/S 615 mmHg 82%
    01:00 -9°C° 0 mm 3 m/S 615 mmHg 82%
    02:00 -9°C° 0 mm 3 m/S 614 mmHg 81%
    03:00 -9°C° 0 mm 3 m/S 614 mmHg 80%
    04:00 -9°C° 0 mm 3 m/S 615 mmHg 78%
    05:00 -8°C° 0 mm 3 m/S 615 mmHg 77%
    06:00 -7°C° 0 mm 2 m/S 615 mmHg 75%
    07:00 -4°C° 0 mm 2 m/S 616 mmHg 70%
    08:00 -2°C° 0 mm 2 m/S 617 mmHg 66%
    09:00 0°C° 0 mm 3 m/S 618 mmHg 62%
    10:00 +2°C° 0 mm 2 m/S 618 mmHg 60%
    11:00 +3°C° 0 mm 2 m/S 618 mmHg 59%
    12:00 +4°C° 0 mm 2 m/S 618 mmHg 58%
    13:00 +4°C° 0 mm 2 m/S 618 mmHg 58%
    14:00 +5°C° 0 mm 2 m/S 618 mmHg 59%
    15:00 +5°C° 0 mm 2 m/S 618 mmHg 59%
    16:00 +5°C° 0 mm 1 m/S 617 mmHg 64%
    17:00 +4°C° 0 mm 1 m/S 617 mmHg 70%
    18:00 +3°C° 0 mm 1 m/S 617 mmHg 75%
    19:00 +1°C° 0 mm 1 m/S 616 mmHg 81%
    20:00 -1°C° 0 mm 1 m/S 615 mmHg 87%
    21:00 -4°C° 0 mm 1 m/S 614 mmHg 93%
    22:00 -4°C° 0 mm 1 m/S 614 mmHg 93%
    23:00 -6°C° 0 mm 1 m/S 613 mmHg 93%

    29 April, Samstag

    Zeit Temperatur Niederschläge Wind Luftdruck Luftfeuchtigkeit
    00:00 -7°C° 0 mm 0 m/S 613 mmHg 93%
    01:00 -7°C° 0 mm 0 m/S 613 mmHg 93%
    02:00 -7°C° 0 mm 0 m/S 612 mmHg 93%
    03:00 -8°C° 0 mm 0 m/S 612 mmHg 92%
    04:00 -6°C° 0 mm 1 m/S 613 mmHg 88%
    05:00 -3°C° 0 mm 1 m/S 613 mmHg 84%
    06:00 -1°C° 0 mm 1 m/S 614 mmHg 80%
    07:00 +1°C° 0 mm 1 m/S 615 mmHg 74%
    08:00 +3°C° 0 mm 2 m/S 616 mmHg 67%
    09:00 +5°C° 0 mm 2 m/S 617 mmHg 61%
    10:00 +6°C° 0 mm 2 m/S 617 mmHg 59%
    11:00 +7°C° 0 mm 3 m/S 617 mmHg 56%
    12:00 +8°C° 0 mm 3 m/S 617 mmHg 54%
    13:00 +8°C° 0 mm 3 m/S 617 mmHg 55%
    14:00 +8°C° 0 mm 3 m/S 616 mmHg 56%
    15:00 +8°C° 0 mm 3 m/S 616 mmHg 57%
    16:00 +7°C° 0 mm 3 m/S 615 mmHg 64%
    17:00 +4°C° 0 mm 3 m/S 615 mmHg 70%
    18:00 +4°C° 0 mm 2 m/S 614 mmHg 77%
    19:00 +3°C° 0 mm 2 m/S 614 mmHg 81%
    20:00 +2°C° 0 mm 2 m/S 614 mmHg 85%
    21:00 +1°C° 0 mm 2 m/S 613 mmHg 89%
    22:00 -1°C° 0 mm 2 m/S 613 mmHg 90%
    23:00 -1°C° 0 mm 2 m/S 613 mmHg 91%

    30 April, Sonntag

    Zeit Temperatur Niederschläge Wind Luftdruck Luftfeuchtigkeit
    00:00 -1°C° 0 mm 2 m/S 613 mmHg 91%
    01:00 -1°C° 0 mm 2 m/S 612 mmHg 91%
    02:00 -1°C° 0 mm 2 m/S 612 mmHg 90%
    03:00 -1°C° 0 mm 2 m/S 612 mmHg 90%
    04:00 +1°C° 0,1 mm 2 m/S 612 mmHg 89%
    05:00 +1°C° 0,1 mm 2 m/S 612 mmHg 88%
    06:00 +2°C° 0,1 mm 2 m/S 613 mmHg 87%
    07:00 +2°C° 0,2 mm 3 m/S 613 mmHg 84%
    08:00 +4°C° 0,2 mm 3 m/S 614 mmHg 81%
    09:00 +5°C° 0,2 mm 3 m/S 614 mmHg 78%
    10:00 +7°C° 0,3 mm 3 m/S 614 mmHg 77%
    11:00 +7°C° 0,3 mm 3 m/S 614 mmHg 75%
    12:00 +8°C° 0,3 mm 3 m/S 614 mmHg 74%
    13:00 +7°C° 0,4 mm 4 m/S 614 mmHg 75%
    14:00 +7°C° 0,4 mm 4 m/S 613 mmHg 75%
    15:00 +7°C° 0,4 mm 4 m/S 613 mmHg 76%
    16:00 +6°C° 0,5 mm 4 m/S 613 mmHg 79%
    17:00 +5°C° 0,5 mm 4 m/S 612 mmHg 82%
    18:00 +5°C° 0,5 mm 4 m/S 612 mmHg 84%
    19:00 +4°C° 1,2 mm 4 m/S 612 mmHg 87%
    20:00 +3°C° 1,2 mm 4 m/S 612 mmHg 89%
    21:00 +2°C° 1,2 mm 5 m/S 612 mmHg 91%
    22:00 +1°C° 2,8 mm 4 m/S 612 mmHg 93%
    23:00 +2°C° 2,8 mm 3 m/S 612 mmHg 95%

    1 Mai, Montag

    Zeit Temperatur Niederschläge Wind Luftdruck Luftfeuchtigkeit
    00:00 +1°C° 2,8 mm 3 m/S 612 mmHg 97%
    01:00 +1°C° 0,7 mm 2 m/S 611 mmHg 97%
    02:00 -1°C° 0,7 mm 2 m/S 611 mmHg 97%
    03:00 -1°C° 0,7 mm 2 m/S 611 mmHg 97%
    04:00 -2°C° 0,4 mm 2 m/S 611 mmHg 96%
    05:00 0°C° 0,4 mm 1 m/S 612 mmHg 94%
    06:00 -1°C° 0,4 mm 1 m/S 612 mmHg 93%
    07:00 -2°C° 0,4 mm 2 m/S 613 mmHg 87%
    08:00 -1°C° 0,4 mm 2 m/S 614 mmHg 80%
    09:00 +1°C° 0,4 mm 2 m/S 615 mmHg 74%
    10:00 +3°C° 0,2 mm 2 m/S 616 mmHg 68%
    11:00 +4°C° 0,2 mm 2 m/S 617 mmHg 63%
    12:00 +5°C° 0,2 mm 3 m/S 618 mmHg 57%
    13:00 +4°C° 0,4 mm 3 m/S 618 mmHg 60%
    14:00 +5°C° 0,4 mm 2 m/S 618 mmHg 63%
    15:00 +4°C° 0,4 mm 2 m/S 617 mmHg 66%
    16:00 +4°C° 0,4 mm 2 m/S 618 mmHg 69%
    17:00 +3°C° 0,4 mm 2 m/S 618 mmHg 73%
    18:00 +3°C° 0,4 mm 1 m/S 618 mmHg 76%
    19:00 +2°C° 0,1 mm 1 m/S 618 mmHg 81%
    20:00 +1°C° 0,1 mm 1 m/S 618 mmHg 86%
    21:00 -1°C° 0,1 mm 1 m/S 617 mmHg 91%
    22:00 -1°C° 0,1 mm 1 m/S 617 mmHg 90%
    23:00 -1°C° 0,1 mm 1 m/S 618 mmHg 90%
    Mehr zeigen